Wind_Speed
38 39 41 41 42 41 41 43 46 48 49 49 47 44 42 41 39 38 37 37 36 36 37 37 36 35 33 32 31 31 31 31 32 33 34 35 34 32 30 29 29 29 29 29 30 31 32 31 30 28 27 28 28 28 29 30 30 30 30 31 31 31 30 30 34 41 40 33 28 30 33 34 35 35 33 33 32 32 32 30 30 29 29 29 30
37 38 39 40 40 40 39 40 43 45 46 44 41 39 38 36 36 35 35 34 34 34 36 36 36 34 33 32 32 31 31 31 33 34 35 35 33 32 31 30 29 29 29 30 30 31 32 32 31 29 28 28 28 28 30 30 31 32 31 31 33 33 32 32 34 38 40 34 25 26 31 32 32 32 30 31 32 31 31 32 30 30 28 27 28
35 36 37 39 38 38 38 38 40 41 41 39 37 35 34 33 34 33 32 32 32 33 34 35 35 34 33 32 32 31 32 32 34 35 36 35 33 32 32 31 30 30 30 30 30 31 32 33 32 30 29 29 29 29 30 30 31 32 32 32 33 34 33 33 34 36 40 35 25 23 28 29 27 27 28 29 30 30 31 32 32 31 29 27 27
33 34 36 36 37 36 36 35 36 37 36 34 32 31 31 32 32 31 30 31 31 31 33 34 35 35 33 33 32 32 32 33 35 36 35 34 33 32 31 31 31 31 30 30 31 31 33 34 33 32 31 31 30 30 30 31 31 32 32 33 34 34 34 34 36 37 36 33 26 23 25 25 22 22 24 25 27 29 30 31 31 31 31 29 27
31 33 34 35 35 35 33 32 33 33 32 30 29 29 30 31 31 30 30 31 30 31 32 34 35 35 34 33 32 32 33 34 35 35 34 34 33 32 31 31 31 31 31 31 32 32 33 34 34 32 32 32 31 31 31 31 31 31 32 33 34 34 35 34 35 34 30 30 30 27 25 23 18 15 16 18 20 24 27 29 30 31 31 30 27
30 31 32 33 34 34 32 31 30 28 27 27 28 29 30 30 30 30 30 30 30 31 33 34 34 34 33 32 32 33 34 35 35 35 34 34 34 33 32 32 32 32 32 32 32 33 34 34 34 33 33 33 32 31 31 31 31 32 32 33 33 33 35 35 33 30 29 32 34 32 30 27 21 15 14 13 14 16 22 27 28 28 27 24 23
28 29 30 32 33 33 31 28 26 25 25 27 29 30 30 30 31 30 30 30 30 31 33 34 33 32 32 32 33 34 35 35 35 35 34 34 34 33 33 32 32 32 33 33 33 33 34 34 34 34 33 33 32 31 31 31 31 32 32 32 33 33 34 36 35 34 35 36 36 36 35 30 21 17 14 13 14 16 17 21 23 22 19 17 20
27 28 29 31 32 30 27 24 24 25 27 29 30 30 30 30 30 30 29 29 30 32 33 32 32 31 32 33 34 35 36 35 35 34 34 34 33 33 33 32 32 32 33 34 34 34 34 34 34 34 33 33 32 31 31 31 31 32 33 32 33 33 34 35 36 36 36 37 37 37 35 29 20 16 14 13 16 16 14 15 19 20 20 20 22
26 27 29 30 29 27 24 24 25 28 30 31 31 31 30 30 30 29 29 30 30 31 31 31 31 32 33 34 35 36 36 35 34 33 33 33 33 33 32 32 32 33 34 35 35 35 35 34 33 32 31 31 30 30 30 30 31 32 32 32 32 32 33 35 35 36 36 37 37 36 34 29 21 16 14 13 14 14 13 14 18 21 22 21 21
26 27 28 27 26 24 25 26 29 31 32 32 31 30 29 29 28 28 28 29 29 30 30 31 32 33 34 35 35 35 35 34 32 31 31 32 32 32 32 32 32 33 33 33 34 34 34 33 31 30 30 30 30 30 30 30 31 32 32 32 32 32 33 35 35 36 37 37 37 35 33 31 24 17 16 15 14 15 15 15 18 19 19 18 17
26 26 26 25 24 25 28 30 31 32 31 30 29 28 28 27 27 27 27 28 29 29 30 31 33 34 35 35 34 34 33 32 30 30 30 31 30 31 32 32 32 32 32 33 33 34 34 35 33 32 32 33 33 32 31 31 31 31 31 32 33 33 33 35 36 37 37 38 37 35 33 33 29 24 22 19 17 17 17 16 17 17 17 18 18
25 25 24 25 25 27 30 30 30 29 29 28 27 26 26 25 25 26 27 28 29 30 31 33 34 34 34 33 33 32 31 30 29 29 30 29 27 27 30 32 33 34 34 35 35 35 36 37 38 38 37 36 35 34 34 33 32 32 32 32 33 33 33 35 36 36 36 35 36 35 34 33 31 30 28 26 22 20 20 19 19 18 18 19 20
24 24 24 26 27 28 28 27 27 27 26 25 25 24 24 25 25 26 27 28 30 31 32 33 33 32 32 31 31 30 30 29 29 29 30 29 27 26 28 31 32 33 34 35 36 37 36 37 38 41 40 37 35 35 36 35 34 33 33 33 34 35 34 34 35 35 35 36 37 38 38 36 34 32 28 25 23 21 21 22 21 21 22 22 22
23 24 25 26 26 26 25 24 24 24 24 24 24 24 24 25 26 27 28 29 30 31 32 32 31 30 29 30 30 30 30 29 29 30 30 30 29 27 29 32 33 34 34 34 35 36 35 34 34 37 38 37 38 38 37 36 35 34 34 34 35 36 36 36 35 34 36 37 38 39 37 35 33 30 25 24 26 27 28 29 28 27 26 24 23
24 25 25 25 23 22 22 21 22 22 22 23 23 24 25 25 27 28 29 30 30 31 31 30 29 29 29 29 30 30 30 29 29 29 29 30 29 28 29 31 32 33 34 34 34 36 36 34 33 34 34 34 37 40 40 38 36 35 35 36 36 37 38 39 38 37 37 38 40 40 39 36 35 34 33 34 35 35 33 32 31 30 30 30 31
24 24 23 22 20 20 19 20 20 21 21 22 23 24 25 26 27 28 29 30 30 30 29 29 28 28 28 29 30 31 30 29 28 29 29 29 28 28 29 30 32 34 35 35 37 38 39 39 37 38 38 37 39 42 42 40 38 38 38 39 40 40 41 42 41 39 38 37 38 38 38 37 36 35 35 33 31 28 26 26 28 29 32 34 34
23 22 21 19 18 18 18 18 19 20 21 22 24 25 26 26 27 28 29 29 29 28 28 28 28 28 28 29 30 31 30 29 28 28 28 28 28 28 30 31 33 36 37 38 39 40 42 42 41 42 44 44 43 44 42 39 38 39 40 41 41 42 43 42 39 36 35 35 34 34 33 32 32 31 30 28 27 26 28 31 33 33 33 31 28
21 19 18 18 17 17 17 17 18 20 21 23 24 25 26 27 28 28 28 28 28 27 27 27 28 28 28 29 29 30 30 29 27 27 28 28 27 28 30 30 32 34 34 34 35 36 38 41 41 41 43 43 42 41 39 37 36 37 38 38 38 40 42 41 37 33 31 31 32 32 32 33 32 32 31 31 31 30 31 33 31 27 25 24 22
17 16 16 17 17 17 17 18 19 21 22 23 24 25 26 27 28 27 27 27 27 26 26 27 27 27 28 28 28 29 30 29 27 27 27 27 27 28 29 30 32 34 33 32 33 35 38 40 41 41 42 42 41 38 35 33 33 35 36 36 37 39 40 39 36 33 29 27 27 28 30 31 31 32 34 34 33 32 31 31 27 22 21 21 19
15 15 16 17 17 18 18 20 21 22 24 24 25 26 27 27 27 26 26 26 26 26 26 27 27 27 27 28 28 29 29 29 27 26 26 26 26 27 29 31 33 33 31 30 31 34 36 38 40 41 40 38 36 33 30 29 31 33 35 36 38 38 37 36 35 33 31 29 27 27 28 28 29 31 33 34 34 34 34 34 33 32 31 28 22
15 16 17 18 19 19 20 22 22 23 24 25 25 26 26 26 25 25 25 25 25 26 26 26 27 27 27 28 29 29 29 28 27 27 26 27 27 26 28 32 33 32 31 30 30 32 35 37 40 41 39 37 34 31 28 28 30 32 35 38 39 37 36 36 36 34 32 31 30 29 29 29 28 30 32 32 33 34 34 35 36 36 36 35 29
16 17 18 19 20 21 22 23 23 24 24 25 25 25 25 25 25 24 25 25 25 25 26 27 27 28 28 29 30 30 29 28 28 28 27 27 27 27 29 32 33 32 32 32 34 36 38 39 40 40 38 37 36 32 28 27 29 32 35 37 37 35 35 36 37 36 37 37 36 35 33 32 30 31 32 32 32 33 34 35 36 36 36 38 36
17 18 19 20 21 22 23 23 24 24 24 24 25 25 25 25 24 24 24 25 25 26 27 28 28 28 29 29 30 31 30 29 28 28 28 28 28 28 29 31 31 31 31 32 33 34 34 35 36 37 36 35 33 29 25 25 27 30 31 32 32 31 32 34 34 33 34 34 35 35 34 33 32 32 33 33 33 33 34 35 36 37 37 38 39
19 20 21 22 23 23 23 23 24 24 24 24 25 25 25 24 24 24 24 25 26 27 28 28 29 29 30 31 31 32 31 30 29 29 29 29 28 29 29 29 29 29 30 31 32 31 31 31 31 32 32 31 28 25 24 24 25 26 27 27 27 28 30 31 30 28 28 28 28 29 30 31 31 31 31 32 33 34 35 35 36 37 38 39 40
20 21 22 23 23 23 23 23 23 23 24 24 24 24 24 24 24 25 25 25 27 27 28 29 30 30 31 31 32 32 32 31 31 30 29 28 28 28 28 27 27 28 29 32 33 33 32 31 31 31 30 28 27 26 28 29 29 29 29 29 29 29 29 30 30 29 28 27 26 26 27 28 28 28 27 28 30 32 33 34 35 36 37 38 40
21 22 22 22 22 22 22 22 23 23 23 23 23 23 24 24 24 25 26 27 27 28 28 29 30 31 32 32 32 33 32 33 32 30 28 27 26 26 25 26 26 27 28 31 33 34 33 33 33 33 33 33 33 34 34 35 35 35 34 33 33 33 32 31 31 30 30 30 28 26 26 24 25 27 27 26 28 30 31 33 34 36 38 39 41
23 22 22 21 21 21 22 22 23 23 23 23 23 23 24 25 25 26 27 27 28 28 29 30 30 31 32 32 32 32 33 33 32 29 26 25 25 25 25 26 26 26 28 30 30 30 30 30 30 31 33 34 36 37 38 39 40 40 40 38 38 38 37 37 36 35 35 34 31 29 27 25 27 29 29 29 30 32 33 34 35 36 38 39 40
22 21 21 20 20 21 21 22 22 23 22 23 23 23 24 25 26 27 27 27 28 29 29 30 31 31 31 31 32 32 32 32 30 27 26 26 27 27 26 26 25 25 26 26 26 25 25 26 27 28 29 31 32 33 35 37 38 39 39 39 38 39 39 39 39 39 38 36 34 32 30 30 32 32 31 30 31 31 30 31 32 33 34 35 36
20 20 19 19 19 20 21 21 22 22 23 23 23 23 24 25 26 27 27 27 27 28 28 30 30 30 29 29 28 28 29 30 29 28 29 29 29 29 29 28 27 27 27 26 25 26 26 28 29 30 30 31 32 32 33 34 35 36 36 36 35 36 37 37 37 37 37 36 36 35 33 33 33 33 31 30 29 29 29 29 30 30 31 32 34
19 18 18 18 19 19 20 21 21 22 22 23 23 23 24 24 26 27 27 26 26 26 28 29 29 29 28 28 27 28 30 31 31 31 31 30 28 28 29 29 29 30 29 28 27 28 29 31 33 33 33 34 34 35 35 35 35 35 34 34 33 33 34 34 34 34 34 34 35 35 34 34 33 33 32 31 30 29 29 29 30 30 30 31 33
18 18 18 18 19 20 20 21 21 22 22 22 23 24 24 25 25 25 24 25 25 26 27 28 27 26 26 28 28 29 30 32 33 33 32 30 28 28 28 29 29 29 28 26 26 28 29 31 32 34 34 35 35 35 35 35 35 35 34 34 34 33 33 34 34 33 33 33 34 34 34 34 34 33 33 32 31 30 30 31 31 31 32 32 34
19 19 19 19 19 20 21 21 21 22 22 22 23 23 24 24 25 25 24 24 25 25 26 26 25 23 23 24 26 27 28 29 32 32 31 31 31 32 33 34 34 33 31 29 30 32 31 30 32 33 35 37 38 38 37 36 36 36 35 35 36 35 35 35 34 34 34 34 35 35 36 36 36 35 34 34 33 33 32 32 33 33 33 34 35
19 19 19 20 20 20 21 21 21 21 22 22 22 22 23 24 26 27 28 27 26 25 24 23 23 23 23 23 24 26 27 28 29 30 31 32 32 33 34 35 35 35 32 30 32 34 32 29 29 28 27 28 29 31 31 32 33 34 34 35 35 35 35 35 33 33 35 35 36 37 37 37 37 37 36 36 35 35 34 34 34 34 34 35 36
19 19 19 19 20 20 20 20 21 21 21 21 21 22 23 24 25 27 29 29 29 28 27 25 24 23 23 24 24 25 26 26 27 28 29 30 29 29 29 30 32 32 29 28 31 34 33 33 34 33 31 31 31 31 32 32 32 33 34 34 34 34 33 33 32 32 33 34 35 36 37 36 36 36 36 37 36 36 36 35 35 35 35 35 36
19 19 19 19 20 20 20 20 21 21 21 22 22 23 24 25 26 27 27 28 29 30 30 29 28 26 25 25 25 25 26 27 27 28 28 27 25 24 24 26 29 31 31 31 34 36 36 38 39 39 39 40 39 38 37 36 35 35 34 34 34 33 33 33 32 32 32 33 34 35 35 36 37 37 37 37 37 36 37 36 36 36 36 36 36
19 19 19 19 20 20 20 21 21 21 22 23 23 24 24 25 25 26 27 28 29 30 30 30 30 29 28 27 26 26 27 28 28 29 28 27 25 23 25 29 31 33 34 35 37 38 39 40 41 41 41 41 40 39 38 36 35 35 34 34 34 34 34 35 35 34 34 34 35 35 35 36 37 37 36 37 37 36 37 36 36 35 36 35 35
20 20 20 20 20 21 21 21 21 21 22 22 23 23 24 25 25 26 27 28 29 30 30 30 30 30 30 29 29 28 28 29 29 29 29 28 27 27 28 30 31 32 34 35 36 38 39 40 40 41 41 41 39 38 38 37 36 36 35 34 34 35 35 36 36 35 35 35 34 34 34 33 34 34 34 35 35 34 34 34 33 33 33 34 33
21 21 21 21 21 21 21 21 21 21 21 22 23 23 24 25 26 27 28 29 29 30 30 30 30 30 30 29 29 30 30 31 31 31 30 30 29 29 28 28 28 28 29 30 31 32 34 35 35 36 36 36 36 35 34 33 33 33 32 32 32 32 32 32 32 32 32 32 32 31 31 30 30 31 32 32 32 32 31 30 30 30 31 31 31
21 21 21 21 21 21 21 21 21 21 22 22 23 24 25 26 27 27 28 29 29 30 30 30 30 30 30 29 29 30 30 31 32 32 32 31 30 30 29 29 29 28 28 27 27 27 28 28 28 29 29 30 30 29 28 27 27 27 27 26 27 27 27 26 26 26 26 27 27 27 27 26 26 27 29 30 30 29 28 28 29 29 29 29 28
21 21 20 20 20 20 21 21 21 22 23 23 24 25 26 26 27 27 28 29 29 29 29 30 30 30 29 29 29 29 29 31 31 31 31 31 30 29 29 28 28 27 26 25 24 23 23 22 22 22 22 23 23 23 22 22 22 22 23 23 23 24 24 23 22 22 22 22 23 23 24 24 23 24 26 27 27 27 27 27 28 28 28 28 28
21 20 20 21 21 21 22 22 22 23 24 24 25 25 26 26 27 27 27 28 29 29 29 30 30 30 29 29 28 28 28 30 30 30 29 29 28 28 27 26 25 24 24 22 21 19 19 18 18 18 18 18 19 19 19 19 19 20 21 21 21 22 21 21 21 20 20 20 21 21 22 22 22 22 24 25 25 25 26 26 27 27 27 27 27
21 21 22 22 22 23 23 23 24 24 24 25 25 26 26 26 26 27 27 27 28 28 29 29 30 29 29 29 28 27 27 28 28 28 27 27 26 25 24 23 22 22 21 20 19 18 17 16 16 16 16 16 17 18 17 17 18 18 19 19 19 19 19 19 19 19 19 19 20 20 21 21 21 21 22 22 23 23 24 25 26 26 26 25 25
21 22 23 23 24 24 24 24 24 25 25 26 26 26 26 26 26 26 27 27 28 28 29 29 29 29 29 29 28 27 27 27 26 26 25 24 23 23 22 21 20 19 18 18 17 17 16 16 16 15 15 15 17 18 17 17 17 17 18 18 18 17 17 17 18 18 18 18 18 19 19 19 19 20 20 21 21 22 23 24 24 25 24 24 24
23 24 24 24 25 25 25 25 25 25 25 26 26 26 26 26 26 26 27 27 28 28 28 29 29 29 29 28 27 27 27 26 25 24 23 22 21 20 19 18 17 17 16 16 16 15 15 15 15 15 15 16 17 17 16 17 17 17 17 17 17 16 16 16 16 16 16 17 17 18 18 18 18 18 19 20 21 22 22 23 23 24 24 24 23
24 24 25 25 26 26 26 26 26 26 26 26 26 26 27 26 27 27 27 27 28 28 28 28 28 28 28 28 27 26 26 25 24 22 21 20 19 18 17 16 16 16 15 15 14 14 14 14 15 15 16 18 17 16 16 17 17 17 17 17 16 16 15 14 15 16 16 17 17 17 17 17 17 17 19 20 20 21 22 22 23 23 23 23 23
25 25 26 26 27 27 27 27 27 27 27 27 27 27 27 27 27 28 27 27 28 28 28 28 28 28 28 27 26 25 24 23 21 20 19 18 17 17 16 15 15 14 14 14 13 13 14 15 17 18 18 18 17 16 16 17 16 16 16 16 16 15 14 14 15 16 16 17 17 17 17 17 17 17 18 18 19 19 20 21 22 22 22 22 22
26 27 27 28 28 28 28 28 28 28 28 28 28 28 28 28 28 28 28 28 28 28 28 28 27 27 26 26 25 24 22 21 19 18 17 16 16 16 15 14 14 13 13 13 13 14 16 18 19 18 18 17 17 16 15 15 15 15 16 16 15 15 14 14 15 16 17 17 17 16 16 16 16 17 17 17 17 18 19 20 20 21 21 21 21
28 28 29 29 29 29 29 29 29 29 29 29 29 29 29 29 29 29 28 28 28 27 27 27 27 26 25 24 23 22 21 19 18 17 15 15 15 15 13 13 13 13 14 14 16 17 18 18 17 17 17 16 15 14 14 13 14 14 15 15 14 14 14 15 16 16 16 16 15 15 15 15 16 16 17 16 17 18 18 18 19 19 19 20 20
29 29 30 30 30 30 30 30 30 30 30 30 30 30 30 30 29 29 28 28 28 27 27 27 26 25 24 23 22 21 19 18 17 16 14 13 13 13 12 12 14 16 17 18 19 19 19 17 16 15 15 14 13 13 13 13 13 13 13 13 13 13 13 14 15 14 13 14 14 14 15 15 15 15 16 16 16 16 17 18 18 18 18 19 19
30 30 31 31 31 31 31 31 31 31 31 31 31 30 30 30 29 29 28 28 27 27 26 26 25 24 23 21 20 20 19 17 16 15 13 12 12 12 13 15 17 19 20 21 21 21 21 19 16 13 12 12 12 11 12 12 12 12 12 13 13 13 14 14 14 13 12 12 13 14 14 15 15 15 14 14 15 16 16 17 17 17 17 18 18
31 31 32 32 32 32 32 32 32 32 31 31 31 30 30 29 29 28 28 27 26 26 25 25 24 23 21 20 20 19 18 17 16 14 12 11 13 15 17 19 20 21 21 19 18 17 16 15 12 11 11 11 10 10 11 12 12 13 13 14 14 14 14 14 14 13 12 11 12 12 13 13 14 14 13 13 14 15 15 16 16 16 16 16 16
Wind_Direction
267 269 272 274 275 275 273 267 262 259 259 261 264 266 267 266 265 264 261 259 257 254 253 254 255 258 262 266 270 274 278 282 285 287 288 286 284 283 281 279 278 278 277 276 276 278 279 279 278 277 275 273 271 269 268 268 268 267 267 267 267 266 267 264 267 275 279 279 280 283 287 291 292 295 298 298 298 298 298 297 298 297 296 295 294
267 270 272 274 276 277 274 269 264 261 261 263 265 266 265 264 262 261 258 256 254 252 251 252 254 257 261 265 269 273 277 281 284 286 285 284 282 280 280 278 277 276 275 274 274 275 277 278 278 277 275 273 270 267 266 266 267 267 267 266 267 267 266 266 268 273 277 279 280 281 285 289 291 293 296 297 297 299 298 299 300 298 297 298 296
268 270 273 275 277 277 275 271 267 264 263 264 265 264 262 261 260 258 256 255 253 251 251 252 254 257 260 264 268 272 277 281 283 284 283 281 280 278 278 278 277 276 273 273 273 273 274 276 277 276 275 273 271 268 266 265 265 266 267 266 267 267 266 267 268 270 274 278 277 278 284 286 287 289 292 293 295 297 299 301 303 302 301 302 301
268 270 272 274 276 276 275 272 267 265 264 263 262 261 261 260 259 258 255 254 252 251 251 252 254 257 260 264 269 274 278 282 282 281 280 279 278 277 277 276 277 276 274 273 272 272 272 274 275 275 274 273 272 269 266 265 265 265 266 267 267 267 267 267 268 269 272 274 274 275 280 282 281 284 287 289 291 295 298 301 304 304 304 305 304
268 269 271 273 274 274 273 270 266 264 262 262 262 262 262 261 259 258 255 253 252 250 250 252 254 258 262 266 271 276 280 281 280 279 278 277 276 276 275 274 274 274 274 273 272 272 272 273 273 273 272 272 271 269 267 266 266 266 266 267 267 268 269 268 268 267 267 269 272 276 279 279 278 279 281 284 288 292 296 300 302 304 305 305 306
268 268 270 271 272 273 271 267 264 263 262 263 264 264 263 262 260 258 254 251 250 249 250 252 255 259 263 268 273 277 279 279 278 277 277 275 275 274 274 274 274 273 272 273 273 272 272 272 272 271 271 271 270 270 270 268 267 266 265 266 266 267 268 267 265 264 263 266 272 275 278 280 280 278 276 276 278 284 291 296 299 302 302 301 304
268 269 270 272 272 271 268 264 263 263 265 266 267 266 264 262 259 257 253 251 250 250 250 253 256 260 266 271 276 278 278 277 276 276 274 273 273 274 275 275 274 273 273 273 273 273 272 271 272 271 271 271 271 271 270 268 267 266 265 265 265 264 264 264 264 264 265 267 270 274 277 279 278 276 275 273 273 276 284 290 294 296 295 290 295
270 271 272 272 270 268 265 264 265 267 269 269 268 266 263 260 257 255 252 251 251 251 252 255 259 264 269 273 277 277 276 275 274 274 273 272 273 275 276 275 274 273 273 274 275 274 272 271 271 271 271 271 272 271 269 267 266 265 264 264 264 263 262 262 263 264 266 268 271 273 276 277 274 271 271 270 273 275 275 279 283 287 289 287 290
272 271 270 269 266 264 263 266 269 271 271 270 267 264 261 257 255 253 251 250 250 252 254 257 262 267 272 275 277 276 274 274 273 273 273 273 274 275 275 275 274 274 274 275 275 274 273 272 272 272 272 272 271 269 268 266 264 264 264 264 262 261 260 260 261 263 265 267 269 271 273 273 270 269 266 261 264 270 272 274 279 284 288 286 285
272 269 267 264 263 263 266 269 272 272 271 269 266 262 258 255 253 253 252 251 251 253 256 261 266 271 275 277 276 274 272 272 273 274 274 275 277 277 277 275 275 275 276 276 276 275 274 274 274 274 273 272 270 268 267 267 265 264 264 264 263 261 259 260 260 262 264 265 266 268 268 268 267 263 263 264 266 270 272 274 278 284 286 282 281
269 265 263 263 263 267 271 272 272 271 268 266 262 258 256 254 252 252 251 252 254 257 261 265 270 274 276 276 274 272 271 273 275 275 275 276 276 277 280 282 282 281 281 279 278 278 278 278 277 275 273 272 271 270 269 268 267 265 264 264 263 261 259 259 260 261 262 263 264 265 265 267 268 267 267 270 269 268 269 271 274 279 279 279 281
267 264 264 267 270 273 274 273 270 268 264 262 259 256 255 254 252 252 253 255 258 261 266 270 274 276 276 274 272 271 273 276 276 276 277 276 272 270 274 279 280 281 282 281 280 279 278 279 279 278 277 274 273 272 271 270 268 267 267 266 266 264 262 261 263 265 265 264 265 265 264 265 268 270 272 273 270 267 268 268 269 272 272 273 276
268 269 272 276 277 276 274 271 267 264 261 258 257 255 254 254 253 254 256 259 262 266 271 274 276 276 274 273 273 274 276 277 277 276 277 276 272 269 270 271 270 271 274 276 278 278 277 278 279 280 280 278 275 272 270 270 269 268 268 267 266 265 263 260 261 265 268 270 270 269 268 268 269 269 268 267 264 264 266 268 269 271 270 270 271
276 279 281 282 280 276 272 268 264 261 258 257 255 254 254 254 255 258 261 264 268 272 275 276 276 275 274 274 275 276 277 278 277 277 277 276 274 273 271 270 268 267 267 268 269 271 273 273 272 274 277 278 277 275 272 271 271 271 269 266 264 263 262 260 258 258 259 261 264 265 267 268 266 263 259 258 264 269 271 273 272 272 272 271 272
286 287 286 284 280 276 272 267 263 260 258 256 255 254 255 257 260 263 267 270 274 276 277 276 275 275 275 275 276 277 278 278 277 277 277 276 277 276 274 272 270 268 267 265 264 265 267 267 265 265 267 269 272 274 274 274 274 272 269 267 266 264 263 264 265 265 263 261 259 258 258 258 258 259 261 265 270 273 273 271 270 270 272 273 274
292 291 288 285 281 276 271 267 263 261 258 257 256 257 259 263 266 269 272 275 277 277 276 276 276 276 276 276 276 277 279 279 278 278 278 277 278 276 272 269 267 266 265 264 264 265 266 266 264 264 264 264 266 269 272 274 274 273 270 269 269 268 267 269 271 272 271 269 265 263 261 260 261 262 265 267 268 267 265 264 265 268 270 271 273
294 292 289 285 280 276 272 268 265 262 259 259 260 262 265 268 271 274 276 277 276 276 275 275 276 276 276 276 277 279 281 281 280 280 279 278 277 274 271 269 268 268 267 267 268 268 268 267 266 264 266 267 267 268 270 270 268 269 270 271 270 270 270 273 273 270 268 268 267 266 265 264 263 263 264 266 266 264 263 265 266 267 266 266 267
296 293 289 285 280 275 271 268 265 262 262 263 265 267 270 273 275 276 276 276 275 275 275 275 275 276 277 278 278 280 283 284 282 281 280 279 277 274 271 268 267 267 268 268 268 268 269 270 270 268 269 271 272 272 272 269 263 260 262 264 265 267 270 274 275 272 268 264 261 258 257 256 256 256 257 259 260 260 258 260 262 261 257 255 258
296 290 285 280 276 273 271 269 268 267 267 269 271 273 275 276 277 276 275 275 275 275 275 275 276 277 279 280 280 281 283 285 285 284 282 279 276 273 270 267 266 266 266 265 266 267 268 270 271 271 271 273 276 276 275 271 265 261 260 259 258 262 268 273 275 275 273 268 261 256 253 251 250 250 251 252 253 254 252 252 253 250 247 250 255
289 282 278 276 274 274 274 274 274 273 274 274 275 276 277 277 277 276 275 274 274 275 275 276 278 280 281 282 283 283 284 286 287 286 283 280 276 273 270 267 266 266 266 265 265 267 269 271 274 276 276 276 277 277 274 268 265 265 265 261 259 263 269 271 273 275 276 272 267 262 259 255 250 248 249 250 252 252 251 251 252 252 255 258 259
281 277 275 274 275 277 279 279 279 278 277 277 277 278 278 278 276 274 274 273 274 276 278 279 280 282 283 284 284 285 286 288 289 287 284 281 277 273 269 266 265 264 264 262 261 262 266 269 272 277 278 277 276 274 269 262 259 261 263 262 263 268 272 273 274 277 276 273 269 267 265 262 258 254 251 250 251 252 252 253 253 254 256 260 262
278 275 274 275 278 281 283 283 282 280 279 279 279 280 279 277 275 274 273 275 276 278 280 280 281 283 284 285 286 288 289 290 290 288 286 282 278 273 268 267 267 265 263 263 263 265 268 270 273 276 278 277 277 278 273 263 257 255 257 260 264 269 271 272 272 272 272 271 270 269 268 265 261 259 257 254 252 252 252 253 255 256 258 261 263
276 275 276 279 282 285 285 284 282 281 280 281 281 280 279 276 275 274 274 276 278 280 281 281 282 283 285 287 288 290 292 293 292 290 287 284 280 275 270 269 268 264 261 261 262 264 266 269 272 275 277 278 279 280 275 264 258 256 256 259 263 266 266 265 263 261 261 262 263 263 263 261 258 257 257 256 254 252 253 254 255 257 259 261 263
279 280 283 285 286 287 286 284 282 282 282 282 281 280 278 276 275 275 276 277 279 281 283 283 284 285 286 288 290 292 294 294 292 289 287 285 282 279 275 272 269 264 259 258 259 260 261 262 264 269 275 279 280 278 272 266 261 259 259 259 259 260 261 261 259 256 254 253 254 254 254 254 254 254 254 253 253 252 253 254 254 255 256 258 260
287 289 290 290 289 287 285 284 283 283 283 282 282 280 278 277 275 276 277 278 280 282 284 284 285 286 287 289 292 295 296 295 292 290 289 287 284 282 279 275 272 266 260 257 256 256 257 261 264 268 272 273 270 265 263 260 255 252 252 253 252 254 258 261 262 260 258 258 258 256 254 254 254 254 253 252 250 249 249 250 252 254 256 259 261
295 296 294 292 289 286 285 284 284 284 284 283 283 281 278 277 276 277 278 279 281 284 284 284 285 286 288 291 294 296 296 294 292 292 291 289 285 282 280 277 276 272 267 265 264 262 263 264 265 264 262 260 259 258 257 256 254 252 251 250 253 257 260 262 262 261 262 264 262 259 257 255 252 254 255 252 248 248 249 251 254 257 260 263 265
300 299 296 293 290 288 288 288 287 288 287 285 284 281 279 278 277 277 279 281 283 285 285 285 285 286 289 293 295 295 294 292 292 293 292 289 285 283 282 281 280 278 275 275 274 273 273 272 269 265 263 260 259 258 258 258 258 258 256 254 255 257 259 261 264 265 267 268 266 262 259 255 254 258 261 258 255 256 257 257 259 260 262 264 266
303 302 300 297 295 294 293 292 291 290 289 287 285 282 281 279 279 279 280 282 284 285 285 285 286 288 292 294 293 293 292 291 291 293 293 291 291 292 291 290 289 287 283 282 281 279 277 274 270 267 265 263 261 259 258 258 259 260 261 261 261 260 259 260 262 264 266 266 265 263 262 261 263 267 268 265 263 263 261 260 261 262 263 264 265
308 307 305 303 301 299 296 294 293 292 290 289 286 284 283 281 280 281 282 283 284 284 284 285 286 290 292 291 291 293 292 290 292 296 297 297 298 299 298 297 296 293 289 287 286 283 279 275 271 267 265 263 263 262 261 260 259 260 262 263 264 264 263 261 260 261 262 264 264 264 265 266 269 271 270 267 265 265 263 263 264 264 264 265 266
313 311 308 306 302 299 297 296 295 294 293 291 290 287 285 283 282 284 285 286 285 284 284 287 290 294 295 294 295 296 295 294 295 296 296 296 297 296 295 294 294 292 290 289 286 280 275 273 272 270 268 266 264 263 263 263 263 263 264 264 263 263 263 261 260 258 259 261 263 264 265 266 267 267 267 266 266 266 266 266 267 267 266 267 268
315 312 309 306 303 300 298 298 297 296 295 294 292 291 289 288 287 287 287 288 288 289 290 293 295 295 292 291 293 295 295 293 292 293 295 295 293 289 283 279 277 277 279 282 281 277 274 272 270 269 268 267 265 264 263 263 264 264 265 266 265 264 262 261 261 261 260 260 260 262 263 264 264 264 265 266 266 266 267 268 268 268 268 269 270
314 312 310 307 305 303 301 300 299 298 297 296 295 295 294 294 293 292 291 290 290 291 292 293 293 290 284 280 280 280 281 280 281 284 287 286 283 280 276 274 273 271 270 269 270 270 271 271 270 270 269 267 265 264 264 264 265 265 265 264 265 265 264 262 261 261 261 260 260 261 262 262 263 263 263 264 265 265 265 265 266 267 269 269 271
315 313 312 310 308 306 304 303 302 301 300 300 299 298 297 297 297 298 298 298 297 296 294 293 292 291 286 282 278 275 275 275 276 277 278 278 278 278 278 276 276 274 273 271 268 266 264 263 263 264 262 260 260 261 262 262 263 263 262 262 262 263 264 264 261 258 257 257 257 257 259 259 260 260 260 261 262 262 263 263 264 266 267 268 269
316 315 313 312 310 308 307 305 304 303 303 302 301 300 300 300 300 301 302 303 303 303 302 301 299 296 292 289 287 285 284 282 281 279 279 280 281 280 279 277 273 271 269 265 262 261 260 258 257 256 255 254 257 261 262 263 263 264 264 263 263 262 262 262 260 256 255 255 254 254 255 255 256 257 258 259 260 261 261 261 262 263 265 267 268
317 315 314 313 311 309 308 306 305 305 304 303 303 302 302 302 302 302 303 304 304 305 305 306 305 304 301 298 297 296 294 291 289 289 289 290 289 287 283 277 272 268 265 261 259 259 260 260 261 262 262 263 265 266 266 266 265 265 263 263 263 263 262 261 260 257 256 256 255 255 256 256 257 257 258 258 258 258 258 259 259 261 263 264 265
318 317 316 314 312 311 309 308 307 306 305 305 304 304 303 303 303 303 303 303 303 303 304 305 306 305 304 303 302 301 299 297 297 296 296 295 292 286 280 276 273 272 271 268 266 265 265 265 266 266 267 268 269 270 270 269 267 265 263 262 262 263 263 264 265 264 263 262 261 260 259 259 258 258 258 257 257 255 255 256 257 258 259 260 262
320 319 318 316 315 313 311 310 309 308 307 306 305 305 304 304 304 304 303 303 303 303 303 305 306 305 306 307 306 304 301 299 298 297 295 294 291 286 283 281 279 277 275 273 271 270 269 269 269 269 269 270 270 270 270 270 269 268 267 265 264 263 264 264 266 267 267 266 265 264 261 259 258 256 255 255 254 254 254 254 254 255 256 257 259
321 321 320 318 317 315 313 313 312 310 309 307 306 305 305 304 304 304 303 302 303 303 304 305 305 305 306 307 307 304 302 300 299 298 297 297 296 295 293 290 287 284 281 278 275 273 272 272 271 271 271 271 271 270 270 269 269 268 267 266 265 264 264 264 264 264 265 265 265 265 263 260 256 253 251 251 251 252 253 253 253 254 254 255 257
323 322 321 320 318 317 316 315 315 312 310 308 307 306 305 305 304 304 304 304 304 304 305 305 305 306 307 307 306 305 303 302 302 302 303 303 303 302 301 299 297 295 293 290 287 284 281 279 278 277 276 276 274 273 270 269 269 268 267 266 265 264 264 264 264 265 265 264 264 264 264 261 257 252 250 249 250 250 251 252 252 252 253 253 254
325 325 324 322 321 319 318 316 315 312 310 308 307 307 306 305 305 305 305 305 305 305 305 305 305 306 307 306 306 306 305 304 304 304 305 304 303 302 300 298 297 296 296 295 293 291 288 286 283 281 280 279 278 275 272 268 267 266 264 262 262 263 265 265 265 266 267 265 264 264 264 263 259 253 249 247 247 248 249 250 251 251 251 252 253
327 326 325 324 322 320 318 316 314 312 310 308 308 307 307 307 307 306 306 306 305 305 306 305 305 306 307 306 307 307 305 303 303 302 301 301 299 298 297 296 295 295 295 294 292 289 285 282 279 276 275 275 276 276 272 267 264 262 261 259 259 261 263 265 265 266 265 264 263 263 263 263 259 253 248 247 246 246 247 248 249 249 250 252 255
328 326 325 324 322 319 318 317 314 313 311 310 309 309 308 308 308 307 306 306 306 306 306 306 306 307 307 307 307 306 303 302 301 300 300 299 298 298 298 298 298 298 295 291 288 285 281 278 277 275 274 274 276 276 273 267 263 260 258 258 258 259 261 263 265 265 265 264 263 263 263 262 258 252 248 247 246 246 246 246 247 249 251 252 254
327 326 324 322 321 319 318 317 315 314 313 312 311 311 310 310 309 308 308 308 308 308 308 307 307 308 307 307 307 306 304 303 303 302 301 301 301 302 302 301 298 295 291 287 285 283 280 278 277 276 274 275 277 275 271 268 265 262 260 258 258 258 260 262 263 264 265 266 267 266 263 260 255 251 250 248 247 246 246 246 247 248 250 252 254
326 325 323 322 321 320 319 318 316 314 314 313 312 312 312 311 310 310 310 310 310 310 309 308 308 308 309 309 309 308 307 306 306 305 305 306 305 304 301 297 293 290 287 285 283 282 281 280 280 278 276 276 275 272 268 267 267 266 264 261 260 261 263 263 262 263 265 268 270 269 265 258 252 249 249 249 248 247 247 247 247 247 248 250 254
325 324 323 322 322 321 320 319 318 316 315 314 313 313 313 312 312 312 312 312 312 311 310 311 311 311 311 312 311 311 310 309 308 308 308 307 305 301 296 293 291 288 287 287 286 285 283 282 281 281 280 278 275 272 269 270 270 267 265 264 263 264 267 267 264 263 265 269 272 271 264 257 251 249 249 249 249 248 247 247 247 248 249 251 254
326 325 324 323 322 321 321 319 318 316 316 315 314 314 314 314 314 315 314 314 314 313 313 313 313 313 313 313 312 312 312 312 311 310 307 303 300 297 294 292 290 289 288 288 287 287 286 283 282 281 280 278 277 276 274 273 272 269 265 264 263 264 266 267 265 264 267 272 273 268 260 256 254 252 251 250 249 249 248 247 248 249 250 252 255
327 326 325 324 323 322 320 319 318 317 316 316 315 315 315 315 315 316 316 315 315 315 315 315 314 313 313 313 313 314 314 314 311 307 302 298 296 295 293 292 292 292 291 291 289 288 288 287 286 285 282 279 278 277 277 277 275 271 267 263 263 265 265 264 264 267 271 274 270 261 254 254 255 254 254 252 248 247 247 247 247 249 250 252 255
327 326 325 324 323 321 320 319 318 317 317 316 316 315 316 316 316 316 316 316 316 316 316 315 315 315 314 314 314 315 315 312 309 303 298 294 295 296 295 294 294 293 293 291 290 290 292 292 292 290 285 280 277 276 277 277 274 270 266 264 264 265 265 264 266 271 273 271 263 254 251 252 254 255 255 252 247 246 246 246 247 248 250 253 256
327 325 324 323 322 322 320 320 319 318 317 317 316 315 316 316 315 315 316 315 316 316 316 316 317 316 315 315 315 315 314 311 306 301 297 295 296 297 297 295 294 295 295 293 292 291 293 295 296 291 283 277 276 277 278 277 274 270 268 268 269 268 265 265 269 275 274 266 256 251 252 254 254 254 253 250 247 245 244 244 246 247 249 253 257
326 325 324 323 323 322 321 320 319 318 317 316 316 315 315 315 315 315 315 316 316 317 317 317 317 316 316 316 316 315 313 309 305 301 299 297 296 297 298 298 298 298 296 294 293 290 288 289 290 287 279 276 277 279 280 279 277 273 273 274 274 270 266 266 269 275 277 270 260 254 254 254 254 253 250 247 245 243 242 242 245 247 249 254 259
326 326 325 324 323 323 321 320 320 319 318 317 316 315 315 315 315 315 315 316 316 317 317 317 317 317 316 316 316 314 311 308 306 304 300 295 295 299 301 302 302 301 301 302 303 300 292 285 281 277 275 275 279 282 281 279 278 277 278 277 272 266 263 264 267 271 275 276 269 260 255 253 252 251 248 244 242 242 242 243 245 248 253 258 262
Height
1462 1462 1462 1461 1460 1460 1460 1460 1460 1461 1462 1463 1463 1463 1464 1464 1464 1465 1466 1466 1467 1468 1468 1469 1470 1470 1470 1470 1470 1471 1470 1470 1470 1469 1469 1468 1467 1467 1466 1466 1465 1464 1464 1463 1462 1461 1460 1460 1460 1460 1460 1460 1459 1459 1459 1459 1458 1458 1458 1456 1456 1455 1455 1454 1451 1445 1444 1447 1447 1445 1445 1444 1443 1443 1442 1440 1440 1439 1438 1437 1436 1435 1434 1432 1431
1457 1457 1457 1456 1456 1455 1455 1455 1455 1456 1457 1458 1458 1458 1459 1459 1460 1460 1460 1461 1462 1463 1464 1464 1465 1466 1466 1466 1466 1466 1466 1466 1465 1465 1464 1464 1463 1462 1462 1461 1461 1460 1459 1459 1458 1457 1456 1456 1456 1456 1456 1455 1455 1455 1455 1455 1454 1453 1453 1453 1452 1451 1451 1450 1448 1444 1441 1443 1444 1443 1442 1441 1440 1439 1439 1437 1436 1435 1434 1433 1433 1432 1431 1430 1428
1453 1452 1452 1451 1451 1451 1450 1450 1450 1451 1452 1453 1453 1454 1454 1454 1455 1455 1456 1456 1457 1458 1459 1460 1461 1461 1461 1461 1461 1461 1461 1461 1461 1460 1459 1459 1458 1458 1457 1457 1456 1456 1455 1454 1454 1454 1452 1451 1451 1451 1452 1451 1451 1451 1451 1451 1450 1449 1449 1449 1448 1447 1447 1446 1445 1442 1439 1439 1441 1440 1439 1438 1437 1436 1436 1434 1433 1432 1430 1429 1429 1428 1427 1426 1425
1448 1447 1447 1447 1446 1446 1445 1446 1446 1446 1447 1448 1448 1449 1450 1450 1450 1450 1451 1452 1453 1454 1455 1455 1456 1456 1456 1457 1457 1457 1456 1456 1456 1455 1455 1454 1454 1453 1453 1452 1451 1451 1450 1450 1450 1449 1448 1447 1447 1447 1447 1447 1446 1447 1446 1446 1446 1446 1445 1444 1444 1443 1443 1443 1441 1439 1437 1436 1437 1437 1436 1435 1435 1434 1433 1431 1430 1429 1427 1426 1425 1424 1423 1422 1421
1443 1443 1443 1443 1442 1442 1442 1441 1442 1442 1443 1444 1445 1445 1445 1445 1445 1446 1447 1447 1448 1449 1450 1451 1451 1451 1452 1452 1452 1452 1452 1451 1451 1450 1450 1449 1449 1448 1448 1448 1447 1446 1446 1445 1445 1445 1444 1443 1443 1443 1443 1442 1442 1442 1442 1442 1442 1441 1441 1440 1440 1439 1439 1438 1437 1436 1435 1433 1432 1433 1433 1432 1431 1430 1430 1429 1427 1426 1424 1423 1422 1420 1419 1418 1417
1440 1440 1439 1439 1438 1438 1438 1438 1438 1439 1440 1440 1441 1441 1441 1441 1441 1442 1443 1443 1444 1445 1446 1446 1447 1447 1447 1447 1448 1447 1447 1446 1446 1445 1445 1444 1444 1443 1443 1443 1442 1441 1441 1441 1440 1440 1439 1438 1438 1438 1438 1437 1437 1437 1437 1437 1437 1437 1436 1436 1436 1436 1435 1434 1433 1433 1432 1430 1429 1429 1429 1429 1428 1427 1427 1426 1425 1423 1422 1420 1419 1417 1416 1415 1414
1436 1436 1436 1435 1435 1434 1434 1434 1435 1436 1436 1436 1436 1436 1437 1437 1437 1438 1438 1439 1440 1441 1441 1442 1442 1443 1443 1443 1443 1443 1442 1441 1441 1441 1440 1440 1439 1439 1438 1438 1437 1437 1436 1436 1436 1435 1434 1434 1433 1433 1433 1432 1432 1433 1433 1433 1432 1432 1432 1431 1432 1431 1430 1429 1429 1428 1428 1427 1426 1425 1425 1425 1425 1424 1423 1423 1422 1420 1419 1417 1416 1415 1414 1413 1411
1433 1433 1432 1432 1431 1431 1431 1432 1432 1432 1432 1432 1432 1432 1432 1433 1433 1434 1434 1435 1436 1436 1437 1438 1438 1438 1439 1438 1438 1438 1437 1437 1436 1436 1435 1435 1434 1434 1434 1433 1433 1432 1431 1431 1430 1430 1429 1429 1428 1428 1428 1427 1428 1428 1428 1428 1428 1427 1427 1427 1427 1427 1426 1425 1424 1424 1424 1423 1422 1422 1421 1421 1421 1421 1420 1420 1418 1417 1417 1416 1413 1412 1412 1411 1409
1430 1429 1429 1428 1428 1428 1428 1428 1429 1428 1428 1428 1428 1428 1428 1429 1429 1429 1430 1431 1432 1432 1433 1434 1434 1434 1434 1434 1433 1433 1432 1432 1432 1431 1431 1430 1430 1429 1429 1428 1428 1427 1426 1426 1425 1424 1423 1423 1423 1423 1423 1423 1423 1423 1423 1423 1423 1422 1422 1422 1422 1422 1421 1421 1420 1420 1420 1419 1418 1418 1418 1417 1417 1417 1417 1416 1415 1414 1414 1413 1411 1409 1409 1407 1406
1426 1426 1425 1425 1425 1425 1425 1425 1425 1424 1424 1424 1424 1424 1424 1424 1425 1426 1426 1427 1428 1429 1429 1429 1430 1430 1430 1429 1428 1428 1427 1427 1427 1427 1427 1426 1425 1424 1424 1423 1423 1422 1421 1421 1420 1419 1418 1418 1418 1418 1418 1418 1418 1418 1418 1418 1417 1417 1417 1417 1417 1417 1417 1416 1415 1415 1415 1415 1414 1414 1414 1413 1413 1414 1413 1412 1412 1411 1410 1409 1408 1407 1406 1404 1402
1423 1422 1422 1422 1422 1422 1421 1421 1421 1420 1420 1420 1420 1420 1420 1421 1421 1422 1423 1424 1424 1425 1425 1425 1425 1425 1425 1424 1423 1423 1422 1423 1423 1423 1422 1422 1421 1419 1418 1417 1417 1417 1416 1415 1414 1414 1413 1412 1412 1413 1413 1413 1413 1413 1413 1413 1412 1412 1412 1412 1412 1412 1412 1411 1410 1411 1411 1410 1410 1410 1409 1408 1409 1409 1409 1409 1409 1408 1407 1406 1405 1404 1403 1401 1399
1420 1419 1419 1419 1419 1418 1418 1417 1417 1416 1416 1416 1416 1417 1417 1417 1418 1419 1420 1420 1421 1421 1421 1421 1421 1421 1420 1419 1418 1418 1418 1418 1418 1418 1417 1417 1417 1416 1415 1413 1412 1411 1410 1409 1408 1408 1408 1406 1406 1406 1406 1407 1407 1407 1407 1407 1407 1407 1407 1407 1407 1407 1407 1406 1405 1405 1405 1405 1405 1405 1404 1404 1404 1404 1404 1404 1404 1404 1403 1403 1402 1401 1400 1398 1397
1417 1416 1416 1416 1415 1414 1413 1413 1413 1413 1413 1413 1413 1413 1414 1414 1415 1416 1416 1417 1417 1417 1417 1417 1416 1416 1415 1414 1413 1413 1413 1413 1414 1413 1413 1413 1413 1414 1413 1411 1409 1407 1406 1404 1403 1402 1402 1402 1400 1398 1398 1399 1400 1400 1400 1401 1401 1402 1402 1402 1401 1401 1401 1401 1401 1401 1401 1400 1399 1399 1399 1400 1399 1399 1400 1400 1400 1400 1399 1398 1398 1398 1397 1395 1394
1414 1413 1413 1412 1411 1410 1410 1409 1409 1409 1409 1409 1410 1410 1411 1412 1412 1413 1413 1413 1413 1413 1412 1412 1411 1411 1410 1409 1409 1408 1408 1409 1409 1409 1409 1408 1409 1409 1409 1407 1405 1404 1402 1401 1399 1398 1397 1397 1396 1393 1393 1393 1392 1393 1393 1394 1395 1396 1396 1395 1395 1395 1395 1396 1397 1397 1397 1397 1395 1393 1394 1395 1394 1394 1395 1396 1396 1395 1395 1394 1394 1394 1393 1392 1391
1410 1410 1408 1408 1407 1406 1406 1406 1406 1406 1406 1407 1407 1407 1408 1409 1409 1409 1409 1409 1408 1408 1407 1407 1406 1406 1405 1405 1404 1404 1404 1405 1405 1404 1404 1404 1404 1404 1403 1402 1400 1398 1397 1396 1395 1394 1393 1393 1392 1390 1389 1389 1387 1386 1387 1388 1389 1389 1389 1389 1389 1389 1389 1389 1389 1391 1391 1391 1390 1389 1389 1390 1390 1390 1390 1391 1391 1391 1390 1390 1390 1390 1389 1388 1386
1407 1406 1405 1404 1404 1403 1403 1403 1403 1403 1403 1404 1404 1405 1405 1406 1406 1405 1405 1404 1404 1403 1403 1402 1402 1401 1401 1400 1400 1399 1399 1400 1400 1400 1400 1399 1399 1399 1398 1396 1395 1393 1392 1391 1390 1389 1389 1388 1387 1386 1385 1385 1383 1382 1382 1383 1383 1383 1383 1382 1382 1382 1382 1382 1383 1384 1384 1383 1383 1383 1384 1385 1386 1386 1386 1387 1387 1386 1386 1386 1385 1386 1385 1383 1381
1403 1402 1402 1401 1401 1401 1401 1400 1401 1401 1401 1401 1401 1402 1402 1402 1402 1401 1400 1400 1399 1399 1398 1398 1398 1397 1397 1396 1395 1395 1395 1395 1396 1395 1395 1395 1395 1394 1392 1391 1389 1387 1386 1385 1384 1384 1383 1382 1382 1381 1379 1379 1379 1378 1380 1380 1378 1377 1376 1376 1376 1375 1374 1375 1377 1378 1379 1378 1378 1379 1379 1380 1381 1381 1382 1382 1383 1383 1383 1381 1380 1382 1381 1378 1377
1401 1400 1399 1398 1398 1398 1398 1398 1398 1398 1398 1398 1399 1399 1399 1398 1398 1397 1396 1395 1395 1395 1394 1394 1393 1393 1392 1392 1391 1390 1390 1390 1391 1390 1390 1390 1390 1389 1387 1385 1384 1381 1380 1380 1379 1378 1376 1376 1376 1375 1373 1373 1373 1374 1375 1376 1375 1373 1372 1371 1370 1369 1368 1369 1371 1372 1373 1373 1373 1374 1374 1375 1376 1376 1377 1377 1378 1379 1379 1376 1375 1377 1376 1375 1374
1398 1397 1396 1396 1395 1395 1395 1395 1395 1395 1395 1395 1395 1395 1395 1394 1393 1393 1392 1391 1391 1391 1390 1390 1389 1389 1388 1387 1387 1386 1385 1385 1386 1386 1385 1385 1385 1384 1382 1380 1378 1376 1375 1374 1373 1372 1371 1370 1369 1369 1368 1367 1368 1368 1369 1370 1369 1368 1367 1367 1365 1364 1363 1364 1365 1365 1366 1367 1367 1368 1368 1369 1370 1371 1370 1371 1372 1373 1373 1372 1372 1372 1372 1371 1371
1395 1395 1394 1393 1393 1392 1392 1392 1392 1392 1392 1392 1392 1391 1390 1390 1389 1389 1388 1388 1387 1387 1386 1385 1385 1384 1384 1383 1382 1381 1381 1380 1381 1381 1380 1379 1379 1378 1377 1374 1372 1371 1370 1369 1368 1366 1365 1364 1362 1362 1362 1362 1363 1364 1365 1365 1364 1363 1362 1361 1359 1358 1359 1360 1360 1360 1361 1361 1362 1363 1363 1364 1365 1365 1365 1366 1367 1367 1368 1368 1368 1368 1367 1367 1367
1393 1392 1391 1391 1390 1390 1390 1390 1389 1389 1389 1388 1388 1387 1386 1386 1385 1385 1384 1383 1383 1382 1382 1381 1380 1380 1379 1378 1377 1377 1376 1376 1376 1376 1375 1374 1373 1373 1372 1369 1367 1367 1365 1364 1363 1361 1360 1358 1357 1356 1356 1357 1358 1359 1360 1361 1360 1359 1357 1355 1354 1354 1355 1355 1355 1355 1355 1355 1356 1357 1358 1359 1360 1360 1360 1361 1361 1362 1362 1362 1363 1363 1363 1362 1363
1390 1389 1389 1388 1388 1388 1387 1387 1386 1386 1385 1384 1384 1383 1382 1382 1381 1381 1380 1379 1379 1378 1377 1377 1376 1375 1374 1374 1372 1372 1372 1371 1371 1370 1369 1368 1367 1367 1365 1363 1362 1362 1360 1359 1357 1356 1354 1353 1352 1351 1351 1351 1352 1353 1354 1355 1355 1354 1353 1351 1350 1352 1352 1351 1350 1350 1350 1350 1351 1351 1352 1353 1354 1355 1355 1355 1356 1357 1357 1357 1357 1358 1358 1357 1357
1387 1387 1386 1386 1385 1385 1384 1383 1383 1382 1381 1381 1380 1379 1379 1378 1377 1377 1376 1375 1374 1374 1373 1372 1371 1370 1370 1369 1368 1367 1366 1366 1365 1364 1363 1362 1361 1360 1359 1358 1358 1357 1356 1354 1352 1351 1349 1348 1347 1346 1347 1347 1347 1347 1349 1350 1349 1349 1348 1348 1348 1349 1348 1347 1347 1346 1345 1345 1345 1346 1346 1348 1349 1350 1350 1350 1351 1351 1352 1352 1352 1352 1352 1352 1352
1385 1384 1384 1383 1382 1381 1380 1380 1379 1378 1378 1377 1376 1376 1375 1374 1373 1373 1372 1371 1370 1369 1369 1368 1367 1366 1365 1364 1363 1362 1361 1361 1360 1359 1357 1356 1355 1354 1353 1352 1352 1352 1350 1349 1347 1346 1345 1344 1343 1343 1343 1343 1343 1344 1344 1344 1344 1344 1344 1344 1344 1343 1341 1341 1341 1342 1341 1341 1341 1341 1341 1342 1343 1344 1345 1346 1346 1346 1346 1347 1347 1347 1347 1347 1346
1382 1381 1380 1379 1379 1378 1377 1376 1375 1375 1374 1373 1372 1372 1371 1370 1369 1368 1367 1367 1366 1365 1365 1363 1362 1361 1360 1359 1358 1357 1356 1355 1354 1353 1352 1351 1350 1348 1347 1346 1346 1345 1344 1343 1341 1341 1340 1340 1340 1340 1340 1340 1340 1339 1338 1338 1338 1338 1338 1338 1338 1337 1336 1336 1336 1336 1336 1336 1336 1337 1337 1337 1338 1339 1341 1342 1342 1341 1342 1342 1342 1342 1342 1342 1341
1379 1378 1377 1376 1375 1374 1373 1373 1372 1371 1371 1369 1369 1368 1367 1366 1365 1364 1363 1363 1362 1361 1360 1359 1358 1356 1355 1354 1353 1352 1351 1349 1348 1347 1347 1345 1344 1343 1342 1341 1340 1339 1338 1336 1335 1335 1335 1335 1335 1335 1334 1334 1334 1333 1332 1331 1331 1331 1332 1333 1332 1332 1332 1332 1331 1331 1331 1332 1332 1332 1333 1333 1334 1334 1335 1337 1337 1337 1338 1338 1338 1338 1338 1337 1336
1376 1375 1373 1372 1372 1371 1370 1369 1368 1368 1367 1366 1365 1364 1363 1362 1361 1360 1359 1359 1358 1357 1356 1355 1353 1352 1351 1350 1349 1347 1345 1343 1342 1342 1342 1340 1339 1338 1337 1336 1335 1334 1333 1331 1330 1330 1329 1329 1329 1328 1328 1328 1327 1327 1326 1326 1326 1326 1326 1327 1327 1328 1328 1327 1327 1327 1326 1327 1327 1327 1328 1329 1328 1328 1330 1331 1331 1332 1333 1333 1333 1333 1332 1332 1331
1372 1371 1370 1369 1368 1368 1367 1366 1365 1364 1363 1362 1361 1360 1359 1358 1357 1356 1356 1355 1354 1353 1351 1350 1349 1348 1347 1345 1343 1342 1340 1338 1337 1337 1337 1335 1334 1333 1332 1331 1330 1329 1328 1327 1326 1326 1325 1324 1323 1322 1322 1321 1321 1321 1321 1320 1320 1320 1320 1321 1321 1322 1322 1322 1322 1321 1321 1321 1322 1322 1322 1323 1322 1323 1324 1325 1325 1326 1326 1326 1327 1327 1327 1326 1325
1370 1369 1367 1366 1366 1364 1363 1362 1361 1360 1359 1358 1357 1356 1355 1354 1353 1352 1352 1351 1350 1349 1347 1346 1345 1344 1343 1341 1339 1338 1336 1334 1333 1333 1331 1330 1329 1328 1327 1326 1325 1324 1323 1323 1322 1321 1320 1319 1317 1317 1316 1316 1315 1315 1315 1315 1315 1315 1315 1316 1316 1316 1316 1316 1316 1316 1316 1316 1316 1317 1317 1317 1317 1317 1318 1318 1319 1320 1320 1320 1321 1321 1321 1320 1319
1367 1366 1365 1364 1363 1361 1360 1359 1358 1357 1355 1354 1353 1352 1351 1350 1349 1348 1347 1347 1346 1345 1343 1342 1340 1339 1337 1335 1334 1333 1331 1329 1329 1328 1327 1326 1326 1324 1323 1322 1320 1319 1318 1318 1317 1316 1314 1313 1311 1310 1310 1310 1309 1309 1309 1309 1309 1309 1309 1310 1310 1310 1310 1310 1310 1311 1311 1311 1311 1311 1312 1312 1312 1312 1313 1313 1314 1314 1314 1315 1315 1315 1315 1314 1313
1364 1363 1362 1361 1359 1358 1357 1356 1354 1353 1352 1350 1349 1348 1347 1346 1345 1344 1343 1342 1341 1340 1339 1337 1336 1335 1333 1331 1330 1329 1327 1325 1324 1322 1322 1322 1322 1321 1319 1317 1316 1315 1315 1314 1312 1310 1308 1307 1306 1305 1304 1304 1303 1303 1303 1303 1303 1303 1303 1304 1304 1304 1305 1305 1305 1305 1306 1306 1306 1306 1306 1307 1307 1307 1307 1308 1309 1309 1309 1309 1309 1310 1310 1309 1308
1362 1360 1359 1358 1356 1355 1354 1352 1351 1350 1348 1347 1346 1344 1343 1342 1341 1340 1339 1338 1338 1336 1335 1334 1333 1332 1331 1330 1328 1326 1324 1322 1320 1319 1318 1317 1316 1314 1312 1311 1311 1311 1311 1310 1307 1304 1303 1301 1300 1299 1298 1297 1296 1297 1297 1297 1297 1297 1298 1298 1297 1297 1298 1298 1299 1300 1300 1300 1301 1300 1301 1301 1301 1302 1302 1303 1303 1304 1304 1304 1304 1305 1305 1304 1303
1359 1358 1356 1355 1353 1352 1351 1349 1348 1346 1345 1344 1342 1341 1340 1338 1337 1335 1334 1333 1332 1331 1331 1330 1329 1327 1326 1325 1323 1321 1320 1318 1316 1315 1313 1311 1309 1308 1307 1306 1305 1304 1304 1303 1301 1299 1298 1297 1295 1294 1293 1292 1291 1291 1291 1291 1291 1291 1292 1292 1291 1291 1291 1292 1293 1294 1294 1294 1295 1295 1295 1296 1296 1297 1297 1297 1298 1299 1299 1299 1299 1300 1300 1299 1298
1357 1355 1354 1352 1351 1349 1348 1346 1345 1343 1342 1341 1339 1338 1337 1335 1333 1332 1329 1327 1326 1325 1324 1324 1323 1322 1321 1319 1318 1316 1315 1313 1311 1309 1307 1306 1304 1303 1301 1300 1298 1298 1298 1296 1294 1292 1292 1290 1289 1289 1288 1287 1286 1286 1285 1285 1285 1285 1285 1285 1285 1286 1286 1286 1287 1287 1288 1288 1289 1289 1290 1290 1291 1291 1292 1292 1293 1293 1294 1294 1294 1295 1295 1294 1293
1355 1353 1351 1350 1348 1347 1345 1344 1342 1341 1339 1338 1336 1335 1333 1332 1330 1328 1326 1324 1322 1320 1318 1317 1317 1316 1315 1314 1312 1311 1309 1306 1305 1303 1302 1300 1299 1298 1296 1294 1292 1291 1291 1289 1288 1286 1285 1284 1283 1282 1282 1281 1280 1280 1280 1280 1279 1279 1280 1279 1279 1280 1280 1280 1280 1281 1282 1283 1283 1283 1284 1285 1285 1286 1286 1287 1287 1288 1288 1289 1289 1289 1289 1289 1289
1352 1351 1349 1347 1346 1344 1343 1341 1339 1338 1336 1335 1333 1332 1330 1328 1327 1325 1323 1321 1319 1317 1315 1313 1312 1311 1309 1308 1307 1305 1303 1301 1299 1297 1296 1295 1294 1293 1290 1288 1286 1285 1284 1283 1282 1281 1279 1278 1277 1276 1276 1275 1274 1274 1273 1273 1273 1273 1274 1274 1274 1274 1274 1274 1274 1274 1275 1276 1276 1277 1278 1278 1279 1280 1280 1281 1281 1281 1282 1283 1284 1284 1284 1284 1284
1350 1348 1346 1345 1343 1341 1340 1338 1337 1335 1333 1332 1330 1328 1327 1325 1323 1322 1320 1318 1316 1314 1312 1310 1308 1306 1305 1303 1301 1300 1298 1296 1294 1292 1291 1290 1289 1287 1285 1282 1281 1279 1278 1277 1276 1275 1273 1272 1271 1270 1270 1269 1268 1268 1267 1267 1267 1267 1267 1268 1268 1268 1268 1268 1268 1269 1269 1269 1269 1270 1271 1272 1272 1273 1274 1274 1275 1275 1276 1277 1278 1278 1279 1279 1279
1347 1345 1344 1342 1340 1338 1337 1335 1334 1332 1330 1329 1327 1325 1323 1322 1320 1318 1316 1314 1312 1310 1308 1306 1304 1302 1301 1299 1297 1294 1292 1291 1289 1287 1286 1284 1283 1281 1279 1277 1276 1274 1272 1271 1270 1269 1268 1267 1266 1265 1264 1263 1262 1262 1262 1261 1261 1261 1261 1261 1262 1262 1263 1263 1263 1263 1263 1263 1264 1264 1265 1265 1266 1267 1268 1269 1269 1269 1270 1271 1272 1273 1274 1274 1274
1344 1343 1341 1339 1338 1336 1334 1332 1331 1329 1327 1326 1324 1322 1320 1318 1317 1315 1313 1311 1309 1307 1305 1303 1301 1298 1296 1295 1292 1290 1287 1285 1283 1282 1280 1279 1277 1275 1273 1272 1270 1268 1267 1266 1265 1264 1263 1262 1261 1260 1259 1258 1257 1257 1257 1256 1256 1256 1256 1257 1257 1257 1258 1258 1258 1258 1258 1259 1259 1259 1259 1260 1261 1262 1262 1263 1264 1265 1266 1266 1267 1268 1269 1269 1270
1342 1340 1339 1337 1335 1333 1332 1330 1328 1326 1324 1323 1321 1319 1317 1315 1313 1311 1309 1307 1305 1303 1301 1299 1296 1295 1293 1291 1288 1286 1283 1281 1279 1277 1276 1274 1272 1271 1269 1267 1266 1264 1263 1261 1260 1259 1258 1257 1256 1256 1255 1254 1253 1253 1252 1252 1252 1252 1252 1253 1253 1253 1253 1254 1254 1254 1254 1254 1255 1255 1255 1255 1256 1257 1258 1258 1259 1260 1261 1262 1263 1264 1264 1265 1265
1340 1338 1336 1334 1333 1331 1329 1327 1325 1323 1322 1320 1318 1316 1314 1312 1310 1308 1306 1303 1301 1299 1297 1295 1292 1290 1289 1286 1284 1282 1279 1276 1275 1273 1271 1270 1268 1267 1265 1264 1262 1261 1259 1258 1257 1256 1255 1254 1253 1252 1252 1251 1250 1250 1249 1249 1249 1249 1249 1249 1249 1250 1250 1250 1250 1251 1251 1251 1251 1251 1251 1252 1252 1253 1253 1254 1255 1256 1257 1258 1258 1259 1260 1261 1261
1337 1335 1334 1332 1330 1328 1326 1324 1322 1320 1318 1316 1314 1312 1310 1308 1306 1304 1302 1300 1297 1295 1293 1291 1288 1286 1284 1282 1281 1278 1276 1273 1271 1269 1267 1266 1264 1262 1261 1260 1258 1257 1256 1255 1254 1253 1252 1251 1250 1249 1249 1248 1247 1247 1246 1246 1246 1246 1246 1246 1246 1247 1247 1247 1247 1247 1247 1248 1248 1248 1248 1248 1248 1249 1249 1250 1251 1252 1253 1254 1254 1255 1256 1257 1257
1335 1333 1332 1330 1327 1325 1324 1321 1319 1317 1315 1313 1311 1309 1307 1305 1303 1300 1298 1296 1293 1291 1288 1286 1284 1282 1280 1278 1276 1274 1272 1269 1267 1265 1263 1262 1260 1259 1257 1256 1255 1254 1253 1252 1251 1250 1249 1248 1247 1247 1246 1245 1244 1244 1243 1243 1243 1243 1243 1243 1243 1243 1244 1244 1244 1244 1244 1244 1244 1244 1244 1245 1245 1246 1246 1247 1247 1248 1249 1250 1251 1252 1252 1253 1254
1333 1331 1329 1327 1325 1323 1321 1318 1316 1314 1312 1310 1307 1305 1303 1301 1299 1296 1294 1292 1289 1287 1285 1282 1280 1278 1276 1274 1272 1270 1267 1265 1263 1261 1259 1258 1257 1255 1254 1253 1252 1251 1250 1249 1248 1247 1246 1245 1244 1244 1243 1242 1241 1241 1241 1240 1240 1240 1240 1240 1240 1240 1241 1241 1241 1241 1241 1241 1241 1241 1241 1241 1242 1242 1243 1243 1244 1245 1245 1246 1247 1248 1249 1250 1250
1331 1328 1326 1324 1322 1320 1317 1315 1313 1310 1308 1306 1304 1301 1299 1297 1295 1293 1290 1288 1285 1283 1281 1278 1276 1274 1271 1269 1267 1265 1263 1261 1259 1258 1256 1255 1254 1253 1251 1250 1249 1248 1247 1246 1245 1244 1243 1243 1242 1241 1240 1239 1239 1238 1238 1237 1237 1237 1237 1237 1238 1238 1238 1238 1238 1238 1239 1239 1238 1238 1238 1238 1239 1239 1240 1240 1241 1241 1242 1243 1244 1245 1246 1246 1247
1328 1326 1323 1321 1319 1317 1314 1312 1309 1307 1305 1303 1300 1298 1296 1293 1291 1289 1286 1284 1281 1279 1277 1274 1272 1270 1267 1265 1263 1261 1259 1258 1256 1255 1253 1252 1251 1250 1249 1248 1246 1245 1244 1243 1242 1241 1241 1240 1239 1238 1237 1236 1236 1236 1235 1235 1235 1235 1235 1235 1235 1235 1235 1235 1235 1235 1236 1236 1236 1236 1236 1236 1236 1236 1237 1237 1238 1238 1239 1240 1241 1242 1242 1243 1244
1325 1323 1320 1318 1315 1313 1311 1308 1306 1304 1301 1299 1296 1294 1292 1289 1287 1285 1282 1280 1278 1275 1273 1270 1268 1266 1264 1262 1260 1258 1256 1254 1253 1252 1251 1249 1248 1247 1246 1245 1244 1242 1241 1241 1240 1239 1238 1237 1236 1235 1234 1234 1233 1233 1233 1232 1232 1232 1232 1232 1232 1232 1233 1233 1233 1233 1233 1233 1232 1233 1233 1233 1233 1234 1234 1234 1235 1236 1236 1237 1238 1239 1240 1240 1241
1322 1320 1317 1315 1312 1309 1307 1305 1302 1300 1297 1295 1293 1290 1288 1285 1283 1281 1278 1276 1274 1271 1269 1267 1264 1262 1260 1258 1256 1254 1253 1252 1250 1249 1248 1247 1245 1244 1243 1242 1241 1240 1239 1238 1237 1236 1235 1234 1233 1232 1232 1231 1231 1231 1230 1230 1230 1230 1230 1230 1230 1230 1230 1230 1230 1230 1230 1230 1230 1230 1230 1230 1231 1231 1231 1232 1232 1233 1234 1235 1235 1236 1237 1237 1238
1319 1317 1314 1311 1309 1306 1303 1301 1298 1296 1293 1291 1289 1286 1284 1281 1279 1277 1274 1272 1270 1267 1265 1263 1261 1259 1257 1255 1253 1252 1250 1249 1248 1247 1245 1244 1243 1242 1241 1239 1238 1237 1236 1235 1234 1233 1232 1231 1230 1229 1229 1229 1228 1228 1228 1228 1227 1227 1227 1227 1227 1227 1227 1227 1227 1227 1227 1227 1227 1227 1227 1228 1228 1228 1229 1229 1230 1231 1231 1232 1233 1234 1234 1235 1235
1316 1313 1311 1308 1305 1302 1300 1297 1294 1292 1289 1287 1284 1282 1280 1278 1275 1273 1270 1268 1266 1264 1262 1259 1257 1256 1254 1252 1250 1249 1248 1246 1245 1244 1243 1242 1241 1239 1238 1237 1235 1234 1233 1232 1231 1229 1229 1228 1227 1227 1227 1226 1226 1226 1226 1225 1225 1225 1225 1225 1225 1225 1225 1225 1225 1225 1225 1225 1225 1225 1225 1225 1226 1226 1226 1227 1228 1228 1229 1230 1230 1231 1232 1232 1232
1313 1310 1307 1304 1302 1299 1296 1293 1291 1288 1285 1283 1280 1278 1275 1273 1271 1269 1267 1264 1262 1260 1258 1256 1254 1253 1251 1249 1248 1247 1245 1244 1243 1241 1240 1239 1238 1237 1235 1234 1233 1231 1230 1229 1227 1226 1225 1225 1225 1225 1225 1224 1224 1224 1223 1223 1223 1223 1222 1222 1222 1222 1222 1222 1223 1223 1223 1223 1223 1223 1223 1223 1224 1224 1225 1225 1226 1226 1227 1228 1228 1229 1229 1229 1230